Starlink 32906

operational
NORAD ID: 63080 Int'l Des: 2025-037 Owner: SPXS Country: US Constellation: starlink
LEOCIRCULAR

About Starlink 32906

Description loading...

Live Position

Loading 3D Globe...

Upcoming Passes

Altitude History

Altitude vs Time

uPlot chart will show altitude changes over time

Two-Line Element Set

1 63080U 25037D 25259.25002315 .00019409 00000-0 16304-2 0 9994
2 63080 70.0013 74.4658 0003402 265.2543 251.4531 14.98317968 5776
Epoch: Sep 16, 2025 • Age: 7 hours

Current Status

Altitude 574.9 km
Velocity 7.57 km/s
Sub-Earth Point -1.68°S, 122.25°W
Launch Date Feb 23, 2025
Age 0.5 years
Type internet

Technical Details

Classification Payload
Mass 730.00 kg
Dry Mass 700.00 kg
Total Mass 730.00 kg
Length 0.30 m
Diameter 4.10 m
Span 29.00 m
Shape Box + pan
Manufacturer SPXS
Bus Type Starlink V2M
Phase Status In Orbit
Owner/State SPXS/US

Large Constellations

Loading constellations...